World > North America > United States > Texas

Richardson, Texas Regional Weather

Lat: 32.97N, Lon: 96.71W
Wx Zone: TXZ119Web Search
Richardson Weather Warning NWS WEATHER ALERT FOR THE RICHARDSON, TX AREA - Issued: 431 AM CDT Mon Apr 12 2021 Richardson Weather Warning  

Helpful Tip: Abbreviated, 7 Day, 14 Day Forecasts. There is a weather forecast for every taste.

Feedback


°F Click to change Richardson hourly weather to Imperial units.Click to change Richardson hourly weather to Metric units. °C
Richardson Weather Map
UTC Time: 4/12/2021, 12:55
Your Time:

Richardson, TX Regional Weather

Expires:202104121300;;434907
ASUS44 KFWD 121215
RWRTX 
NORTH TEXAS HOURLY WEATHER ROUNDUP
NATIONAL WEATHER SERVICE FORT WORTH TX
700 AM CDT MON APR 12 2021

NOTE: "FAIR" INDICATES FEW OR NO CLOUDS BELOW 12,000 FEET WITH NO
SIGNIFICANT WEATHER AND/OR OBSTRUCTIONS TO VISIBILITY.


TXZ118-119-121300-
DALLAS/FORT WORTH METROPLEX
  
CITY           SKY/WX    TMP DP  RH WIND       PRES   REMARKS
DFW AIRPORT    MOCLDY    65  54  67 S10       29.73R                  
6HR MIN TEMP:  63; 6HR MAX TEMP:  70;                                

DALLAS LOVE    MOCLDY    65  52  62 S10       29.75R                  
6HR MIN TEMP:  65; 6HR MAX TEMP:  73;                                

FTW MEACHAM    FAIR      60  53  77 E7        29.73R                  
6HR MIN TEMP:  59; 6HR MAX TEMP:  67;                                

DAL-EXECUTIVE  FAIR      62  51  67 SE7       29.75R                  
6HR MIN TEMP:  62; 6HR MAX TEMP:  66;                                

FTW-ALLIANCE   MOCLDY    63  53  70 S10       29.74R                  
6HR MIN TEMP:  63; 6HR MAX TEMP:  68;                                

FTW-NAS-JRB    MOCLDY    66  55  67 SE7       29.73R                  
6HR MIN TEMP:  64; 6HR MAX TEMP:  71;                                

FTW-SPINKS     CLEAR     61  54  77 S10       29.74R                  
ARLINGTON      FAIR      65  55  70 SE9       29.74R                  
6HR MIN TEMP:  64; 6HR MAX TEMP:  70;                                

GRAND PRAIRIE  CLEAR     63  52  67 SE5       29.76R                  
ADDISON        MOCLDY    63  52  67 S9        29.76R                  
MESQUITE       CLEAR     55  46  71 SE8       29.77R                  
LANCASTER      FAIR      55  49  79 E3        29.77R                  
6HR MIN TEMP:  55; 6HR MAX TEMP:  60;                                

$$


SKY/WX - Weather  TMP - Temperature  DP - Dew Point  RH - Relative Humidity
WIND - Wind Direction/Speed PRES - Barometric Pressure VSB - Visibility
WCI - Wind Chill Index E13G22 Wind - East Wind 13 mph/Gusts of 22 mph